Flag for India Weather past 2 weeks in Jaunpur, Uttar Pradesh, India

Now
57 °F

Haze.


Feels Like: 57 °F
Forecast: 47 / 68 °F
Wind: 5 mph from West

Location: Varanasi / Babatpur

Current Time: Jan 30, 2015 at 9:43:41 PM

Latest Report: Jan 30, 2015 at 9:00 PM


Visibility: 2 mi

Pressure: 30.09 "Hg

Humidity: 77%

Dew point: 50 °F

Location of JaunpurLocation

Historic Weather in Jaunpur — Graph

°F

Jaunpur temperature yesterday

Maximum temperature yesterday: 68 °F (at 2:00 PM)
Minimum temperature yesterday: 55 °F (at 10:00 PM)
Average temperature yesterday: 61 °F

Past Weeks' High & Low Weather Summary

 TemperatureHumidityPressure
High73 °F (Jan 23, 3:00 PM)100% (Jan 15, 8:00 PM)30.24 "Hg (Jan 15, 8:00 PM)
Low41 °F (Jan 21, 6:00 AM)44% (Jan 22, 3:00 PM)29.89 "Hg (Jan 22, 12:00 AM)
Average57 °F87%30.09 "Hg
* Reported Jan 15 8:00 PM — Jan 30 8:00 PM, Jaunpur, Weather by CustomWeather, © 2014

Note: Actual official high and low records may vary slightly from our data, if they occured in-between our weather recording intervals... More about our weather records

Advertising

Jaunpur weather history for previous 24 hours

 ConditionsComfort  
Time TempWeatherWind HumidityBarometerVisibility
8:00 PM
Jan 30
59 °FHaze.3 mph72%30.09 "Hg1 mi
7:00 PM59 °FHaze.3 mph72%30.07 "Hg1 mi
5:00 PM66 °FHaze.5 mph60%30.07 "Hg2 mi
4:00 PM66 °FHaze.9 mph60%30.07 "Hg2 mi
2:00 PM64 °FHaze.8 mph64%30.07 "Hg2 mi
1:00 PM64 °FHaze.12 mph56%30.09 "Hg2 mi
12:00 PM63 °FHaze.8 mph64%30.12 "Hg2 mi
11:00 AM61 °FHaze.7 mph63%30.15 "Hg1 mi
10:00 AM55 °FFog.8 mph77%30.15 "Hg1 mi
9:00 AM52 °FFog.6 mph88%30.15 "Hg1 mi
8:00 AM48 °FFog.3 mph87%30.12 "Hg1 mi
7:00 AM46 °FFog.3 mph93%30.12 "Hg1 mi
6:00 AM48 °FFog.3 mph87%30.09 "Hg1 mi
5:00 AM50 °FFog.3 mph94%30.09 "Hg1 mi
4:00 AM50 °FFog.3 mph88%30.09 "Hg1 mi
12:00 AM54 °FFog.3 mph94%30.12 "Hg1 mi
11:00 PM
Jan 29
55 °FFog.3 mph94%30.12 "Hg1 mi
10:00 PM55 °FFog.2 mph100%30.09 "Hg1 mi
Weather by CustomWeather, © 2014

See weather overviewHow to use our weather pages